When you browse on this site, cookies collect data to enhance your experience and personalize the content and advertising you see.
Visit our Privacy Policy to learn more. By continuing to use the site, you agree to this use of cookies and data.
  • In Sweden
  • List of Countries
  • For 7 days
  • Water Temperature
  • Weather Map
  • Weather Widgets
  • user-avatar
    Login

    Hourly Weather Chalon-sur-Saone

    Today, 12 November, Tuesday

    Time Temperature Precipitation Wind Pressure Humidity
    00:00 +3°C° 0 mm 2 mps 743 mmHg 96%
    01:00 +3°C° 0 mm 2 mps 743 mmHg 96%
    02:00 +2°C° 0 mm 2 mps 742 mmHg 97%
    03:00 +2°C° 0 mm 2 mps 742 mmHg 97%
    04:00 +2°C° 0 mm 2 mps 742 mmHg 97%
    05:00 +2°C° 0 mm 2 mps 742 mmHg 96%
    06:00 +2°C° 0 mm 2 mps 742 mmHg 96%
    07:00 +3°C° 0 mm 2 mps 742 mmHg 94%
    08:00 +3°C° 0 mm 3 mps 742 mmHg 91%
    09:00 +4°C° 0 mm 3 mps 741 mmHg 88%
    10:00 +4°C° 0 mm 3 mps 741 mmHg 86%
    11:00 +5°C° 0 mm 3 mps 741 mmHg 84%
    12:00 +7°C° 0 mm 3 mps 741 mmHg 82%
    13:00 +7°C° 0.1 mm 3 mps 740 mmHg 82%
    14:00 +8°C° 0.1 mm 2 mps 740 mmHg 81%
    15:00 +8°C° 0.1 mm 2 mps 739 mmHg 81%
    16:00 +7°C° 0.1 mm 2 mps 739 mmHg 85%
    17:00 +6°C° 0.1 mm 2 mps 739 mmHg 88%
    18:00 +5°C° 0.1 mm 2 mps 739 mmHg 91%
    19:00 +5°C° 0.1 mm 1 mps 739 mmHg 92%
    20:00 +5°C° 0.1 mm 1 mps 739 mmHg 93%
    21:00 +4°C° 0.1 mm 1 mps 739 mmHg 94%
    22:00 +4°C° 0 mm 1 mps 739 mmHg 94%
    23:00 +3°C° 0 mm 1 mps 739 mmHg 95%

    Tomorrow, 13 November, Wednesday

    Time Temperature Precipitation Wind Pressure Humidity
    00:00 +3°C° 0 mm 1 mps 738 mmHg 95%
    01:00 +3°C° 0 mm 1 mps 738 mmHg 95%
    02:00 +1°C° 0 mm 0 mps 738 mmHg 96%
    03:00 +1°C° 0 mm 0 mps 738 mmHg 96%
    04:00 +1°C° 0 mm 0 mps 738 mmHg 96%
    05:00 +2°C° 0 mm 1 mps 738 mmHg 96%
    06:00 +2°C° 0 mm 1 mps 738 mmHg 96%
    07:00 +3°C° 0 mm 1 mps 738 mmHg 93%
    08:00 +4°C° 0 mm 1 mps 738 mmHg 90%
    09:00 +5°C° 0 mm 1 mps 738 mmHg 87%
    10:00 +6°C° 0 mm 1 mps 738 mmHg 82%
    11:00 +7°C° 0 mm 1 mps 738 mmHg 76%
    12:00 +8°C° 0 mm 1 mps 738 mmHg 71%
    13:00 +8°C° 0 mm 1 mps 738 mmHg 74%
    14:00 +7°C° 0 mm 1 mps 738 mmHg 76%
    15:00 +6°C° 0 mm 2 mps 738 mmHg 79%
    16:00 +5°C° 0 mm 2 mps 738 mmHg 83%
    17:00 +4°C° 0 mm 2 mps 738 mmHg 88%
    18:00 +2°C° 0 mm 2 mps 738 mmHg 93%
    19:00 +2°C° 0 mm 2 mps 738 mmHg 94%
    20:00 +2°C° 0 mm 2 mps 737 mmHg 94%
    21:00 +1°C° 0 mm 2 mps 737 mmHg 95%
    22:00 +1°C° 0 mm 2 mps 737 mmHg 95%
    23:00 +1°C° 0 mm 2 mps 736 mmHg 94%

    Day after tomorrow, 14 November, Thursday

    Time Temperature Precipitation Wind Pressure Humidity
    00:00 +1°C° 0 mm 2 mps 735 mmHg 94%
    01:00 0°C° 0 mm 3 mps 735 mmHg 92%
    02:00 0°C° 0 mm 3 mps 734 mmHg 90%
    03:00 +1°C° 0 mm 3 mps 733 mmHg 88%
    04:00 +1°C° 0.8 mm 3 mps 733 mmHg 90%
    05:00 +2°C° 0.8 mm 2 mps 734 mmHg 93%
    06:00 +2°C° 0.8 mm 2 mps 734 mmHg 95%
    07:00 +2°C° 0.7 mm 2 mps 734 mmHg 95%
    08:00 +3°C° 0.7 mm 2 mps 734 mmHg 96%
    09:00 +3°C° 0.7 mm 2 mps 734 mmHg 96%
    10:00 +4°C° 0 mm 2 mps 734 mmHg 95%
    11:00 +5°C° 0 mm 1 mps 733 mmHg 93%
    12:00 +6°C° 0 mm 1 mps 733 mmHg 92%
    13:00 +6°C° 0.5 mm 1 mps 733 mmHg 93%
    14:00 +6°C° 0.5 mm 1 mps 732 mmHg 94%
    15:00 +5°C° 0.5 mm 1 mps 732 mmHg 95%
    16:00 +5°C° 0.7 mm 1 mps 732 mmHg 96%
    17:00 +5°C° 0.7 mm 1 mps 732 mmHg 97%
    18:00 +4°C° 0.7 mm 2 mps 732 mmHg 97%
    19:00 +4°C° 0.7 mm 2 mps 732 mmHg 97%
    20:00 +4°C° 0.7 mm 2 mps 732 mmHg 97%
    21:00 +4°C° 0.7 mm 2 mps 732 mmHg 97%
    22:00 +5°C° 0.4 mm 1 mps 732 mmHg 98%
    23:00 +5°C° 0.4 mm 1 mps 732 mmHg 98%

    15 November, Friday

    Time Temperature Precipitation Wind Pressure Humidity
    00:00 +4°C° 0.4 mm 0 mps 732 mmHg 98%
    01:00 +4°C° 0.5 mm 0 mps 733 mmHg 98%
    02:00 +5°C° 0.5 mm 1 mps 733 mmHg 98%
    03:00 +5°C° 0.5 mm 1 mps 733 mmHg 98%
    04:00 +5°C° 0.1 mm 1 mps 734 mmHg 98%
    05:00 +5°C° 0.1 mm 1 mps 734 mmHg 97%
    06:00 +5°C° 0.1 mm 1 mps 734 mmHg 97%
    07:00 +5°C° 0 mm 1 mps 735 mmHg 95%
    08:00 +5°C° 0 mm 1 mps 735 mmHg 93%
    09:00 +6°C° 0 mm 1 mps 735 mmHg 91%
    10:00 +6°C° 0 mm 1 mps 735 mmHg 88%
    11:00 +7°C° 0 mm 1 mps 735 mmHg 84%
    12:00 +8°C° 0 mm 1 mps 735 mmHg 80%
    13:00 +7°C° 0 mm 1 mps 735 mmHg 81%
    14:00 +7°C° 0 mm 1 mps 735 mmHg 81%
    15:00 +7°C° 0 mm 1 mps 735 mmHg 82%
    16:00 +6°C° 0 mm 1 mps 735 mmHg 84%
    17:00 +6°C° 0 mm 1 mps 736 mmHg 87%
    18:00 +4°C° 0 mm 0 mps 736 mmHg 89%
    19:00 +3°C° 0 mm 0 mps 737 mmHg 90%
    20:00 +4°C° 0 mm 1 mps 737 mmHg 91%
    21:00 +3°C° 0 mm 1 mps 737 mmHg 92%
    22:00 +3°C° 0 mm 1 mps 738 mmHg 93%
    23:00 +3°C° 0 mm 1 mps 738 mmHg 93%

    16 November, Saturday

    Time Temperature Precipitation Wind Pressure Humidity
    00:00 +3°C° 0 mm 1 mps 738 mmHg 94%
    01:00 +3°C° 0.2 mm 1 mps 738 mmHg 95%
    02:00 +3°C° 0.2 mm 1 mps 738 mmHg 96%
    03:00 +3°C° 0.2 mm 1 mps 739 mmHg 97%
    04:00 +3°C° 0 mm 1 mps 739 mmHg 96%
    05:00 +4°C° 0 mm 1 mps 739 mmHg 96%
    06:00 +4°C° 0 mm 1 mps 739 mmHg 96%
    07:00 +4°C° 0 mm 1 mps 740 mmHg 93%
    08:00 +5°C° 0 mm 1 mps 740 mmHg 91%
    09:00 +5°C° 0 mm 2 mps 740 mmHg 88%
    10:00 +7°C° 0 mm 1 mps 740 mmHg 84%
    11:00 +8°C° 0 mm 1 mps 740 mmHg 81%
    12:00 +9°C° 0 mm 1 mps 740 mmHg 77%
    13:00 +8°C° 0 mm 1 mps 739 mmHg 79%
    14:00 +8°C° 0 mm 1 mps 739 mmHg 81%
    15:00 +8°C° 0 mm 1 mps 739 mmHg 83%
    16:00 +7°C° 0 mm 1 mps 739 mmHg 86%
    17:00 +5°C° 0 mm 1 mps 739 mmHg 90%
    18:00 +4°C° 0 mm 1 mps 739 mmHg 94%
    19:00 +4°C° 0 mm 1 mps 739 mmHg 94%
    20:00 +4°C° 0 mm 1 mps 739 mmHg 94%
    21:00 +3°C° 0 mm 1 mps 739 mmHg 94%
    22:00 +3°C° 0 mm 1 mps 739 mmHg 95%
    23:00 +3°C° 0 mm 1 mps 738 mmHg 95%

    17 November, Sunday

    Time Temperature Precipitation Wind Pressure Humidity
    00:00 +2°C° 0 mm 1 mps 738 mmHg 95%
    01:00 +2°C° 0 mm 1 mps 738 mmHg 95%
    02:00 +2°C° 0 mm 1 mps 738 mmHg 95%
    03:00 +2°C° 0 mm 1 mps 738 mmHg 95%
    04:00 +2°C° 0 mm 1 mps 738 mmHg 95%
    05:00 +2°C° 0 mm 1 mps 738 mmHg 94%
    06:00 0°C° 0 mm 0 mps 738 mmHg 94%
    07:00 +1°C° 0 mm 0 mps 738 mmHg 91%
    08:00 +2°C° 0 mm 0 mps 739 mmHg 88%
    09:00 +3°C° 0 mm 0 mps 739 mmHg 86%
    10:00 +4°C° 0 mm 0 mps 739 mmHg 85%
    11:00 +5°C° 0 mm 1 mps 739 mmHg 84%
    12:00 +6°C° 0 mm 1 mps 739 mmHg 83%
    13:00 +6°C° 0 mm 1 mps 739 mmHg 84%
    14:00 +6°C° 0 mm 1 mps 739 mmHg 85%
    15:00 +6°C° 0 mm 1 mps 739 mmHg 86%
    16:00 +5°C° 0 mm 1 mps 740 mmHg 89%
    17:00 +4°C° 0 mm 1 mps 740 mmHg 92%
    18:00 +3°C° 0 mm 1 mps 740 mmHg 95%
    19:00 +3°C° 0 mm 1 mps 741 mmHg 95%
    20:00 +1°C° 0 mm 0 mps 741 mmHg 95%
    21:00 +1°C° 0 mm 0 mps 741 mmHg 95%
    22:00 +1°C° 0 mm 0 mps 741 mmHg 96%
    23:00 0°C° 0 mm 0 mps 741 mmHg 96%
    Show more